CW7710 Weather Reports


Display with metric or nautical units.
time (UTC)temp
F
wind
direction
speed
MPH
gust
MPH
rain 1hr
in
rain 24hr
in
rain mn
in
humidity
%
barometer
mb
20260902005330 77 102 6.0 0.0 0.00 0.00 0.00 37 1010.8
20260902004332 78 87 6.0 0.0 0.00 0.00 0.00 35 1010.6
20260902003335 78 89 6.0 0.0 0.00 0.00 0.00 38 1010.5
20260902002338 78 86 6.0 0.0 0.00 0.00 0.00 37 1010.7
20260902001326 79 81 8.0 0.0 0.00 0.00 0.00 34 1010.8
20260902000332 79 86 9.0 0.0 0.00 0.00 0.00 34 1010.8
20260901235335 80 82 10.0 0.0 0.00 0.00 0.00 31 1011.0
20260901234338 79 85 10.0 0.0 0.00 0.00 0.00 32 1011.5
20260901233345 80 81 11.0 0.0 0.00 0.00 0.00 32 1011.2
20260901232328 80 82 11.0 0.0 0.00 0.00 0.00 31 1011.1
20260901231331 80 85 12.0 0.0 0.00 0.00 0.00 31 1011.4
20260901230357 81 83 11.0 0.0 0.00 0.00 0.00 32 1011.4
20260901225339 80 107 10.0 0.0 0.00 0.00 0.00 34 1011.3
20260901224326 79 91 10.0 0.0 0.00 0.00 0.00 33 1011.7
20260901223328 79 86 9.0 0.0 0.00 0.00 0.00 31 1011.8
20260901222332 80 111 11.0 0.0 0.00 0.00 0.00 31 1011.8
20260901221338 80 90 8.0 0.0 0.00 0.00 0.00 31 1012.1
20260901220325 80 79 9.0 0.0 0.00 0.00 0.00 31 1012.1
20260901215351 80 93 9.0 0.0 0.00 0.00 0.00 32 1012.9
20260901214333 80 90 9.0 0.0 0.00 0.00 0.00 31 1012.1
20260901213338 81 86 9.0 0.0 0.00 0.00 0.00 32 1013.1
20260901212325 81 103 9.0 0.0 0.00 0.00 0.00 29 1013.0
20260901211348 80 91 9.0 0.0 0.00 0.00 0.00 30 1012.6
20260901210350 80 78 8.0 0.0 0.00 0.00 0.00 31 1012.9
20260901205331 80 84 9.0 0.0 0.00 0.00 0.00 30 1012.9
20260901204335 80 100 9.0 0.0 0.00 0.00 0.00 30 1013.0
20260901203342 80 130 8.0 0.0 0.00 0.00 0.00 31 1013.1
20260901202345 79 112 8.0 0.0 0.00 0.00 0.00 32 1013.7
20260901201328 79 119 9.0 0.0 0.00 0.00 0.00 33 1013.7
20260901200334 79 108 8.0 0.0 0.00 0.00 0.00 35 1013.6
20260901195344 79 115 8.0 0.0 0.00 0.00 0.00 37 1014.5
20260901194327 78 139 9.0 0.0 0.00 0.00 0.00 36 1014.7
20260901193330 78 121 11.0 0.0 0.00 0.00 0.00 37 1014.8
20260901192335 78 94 10.0 0.0 0.00 0.00 0.00 37 1014.9
20260901191402 77 124 10.0 0.0 0.00 0.00 0.00 37 1014.4
20260901190326 76 107 11.0 0.0 0.00 0.00 0.00 40 1014.6
20260901185329 75 96 13.0 0.0 0.00 0.00 0.00 40 1015.1
20260901184332 76 129 13.0 0.0 0.00 0.00 0.00 40 1015.0
20260901183345 76 138 12.0 0.0 0.00 0.00 0.00 41 1015.0
20260901182347 74 118 6.0 0.0 0.00 0.00 0.00 41 1015.5
20260901181329 74 298 3.0 0.0 0.00 0.00 0.00 45 1015.7
20260901180336 71 31 1.0 0.0 0.00 0.00 0.00 46 1015.3
20260901175325 69 20 1.0 0.0 0.00 0.00 0.00 50 1015.4
20260901174329 69 322 1.0 0.0 0.00 0.00 0.00 51 1015.5
20260901173336 69 17 0.0 0.0 0.00 0.00 0.00 48 1015.6
20260901172340 69 91 2.0 0.0 0.00 0.00 0.00 47 1015.9
20260901171330 68 35 2.0 0.0 0.00 0.00 0.00 50 1016.1
20260901170333 67 338 1.0 0.0 0.00 0.00 0.00 51 1016.3
20260901165356 66 93 4.0 0.0 0.00 0.00 0.00 52 1015.9
20260901164359 65 98 2.0 0.0 0.00 0.00 0.00 55 1016.3
20260901163340 63 90 1.0 0.0 0.00 0.00 0.00 61 1016.4
20260901162331 62 125 3.0 0.0 0.00 0.00 0.00 62 1016.4
20260901161355 62 75 2.0 0.0 0.00 0.00 0.00 62 1016.4
20260901160337 61 65 4.0 0.0 0.00 0.00 0.00 64 1015.8
20260901155340 62 67 7.0 0.0 0.00 0.00 0.00 65 1016.0
20260901154331 61 92 7.0 0.0 0.00 0.00 0.00 68 1015.9
20260901153334 60 79 4.0 0.0 0.00 0.00 0.00 74 1016.3
20260901152338 58 78 6.0 0.0 0.00 0.00 0.00 77 1016.0
20260901151342 57 66 4.0 0.0 0.00 0.00 0.00 79 1015.9
20260901150344 55 73 2.0 0.0 0.00 0.00 0.00 81 1016.6
20260901145331 53 63 1.0 0.0 0.00 0.00 0.00 80 1015.9
20260901144354 52 73 0.0 0.0 0.00 0.00 0.00 80 1016.2
20260901143336 51 73 1.0 0.0 0.00 0.00 0.00 79 1016.0
20260901142402 51 98 0.0 0.0 0.00 0.00 0.00 79 1016.0
20260901141328 51 8 0.0 0.0 0.00 0.00 0.00 78 1016.0
20260901140331 52 26 1.0 0.0 0.00 0.00 0.00 78 1016.0
20260901135354 52 19 2.0 0.0 0.00 0.00 0.00 78 1016.2
20260901134335 52 84 1.0 0.0 0.00 0.00 0.00 78 1016.1
20260901133338 51 63 1.0 0.0 0.00 0.00 0.00 78 1016.1
20260901132326 50 58 3.0 0.0 0.00 0.00 0.00 78 1016.2
20260901131349 50 86 3.0 0.0 0.00 0.00 0.00 79 1015.2
20260901130331 50 181 0.0 0.0 0.00 0.00 0.00 79 1013.6
20260901125334 50 119 0.0 0.0 0.00 0.00 0.00 80 1015.2
20260901124341 50 119 3.0 0.0 0.00 0.00 0.00 81 1015.2
20260901123344 50 140 2.0 0.0 0.00 0.00 0.00 81 1015.1
20260901122328 49 119 1.0 0.0 0.00 0.00 0.00 82 1015.3
20260901121334 49 82 1.0 0.0 0.00 0.00 0.00 82 1015.2
20260901120336 48 82 2.0 0.0 0.00 0.00 0.00 82 1015.4
20260901115338 48 36 0.0 0.0 0.00 0.00 0.00 82 1015.4
20260901114341 48 36 0.0 0.0 0.00 0.00 0.00 81 1015.5
20260901113325 48 36 0.0 0.0 0.00 0.00 0.00 81 1015.4
20260901112328 48 20 0.0 0.0 0.00 0.00 0.00 80 1015.3
20260901111337 49 20 1.0 0.0 0.00 0.00 0.00 80 1015.4
20260901110323 49 143 0.0 0.0 0.00 0.00 0.00 79 1015.6
20260901105330 49 92 1.0 0.0 0.00 0.00 0.00 79 1015.5
20260901104333 49 139 3.0 0.0 0.00 0.00 0.00 78 1015.6
20260901103343 50 86 2.0 0.0 0.00 0.00 0.00 78 1015.5
20260901102327 50 111 3.0 0.0 0.00 0.00 0.00 78 1015.6
20260901101353 51 171 5.0 0.0 0.00 0.00 0.00 78 1015.3
20260901100336 51 158 5.0 0.0 0.00 0.00 0.00 79 1015.3
20260901095343 50 124 3.0 0.0 0.00 0.00 0.00 80 1015.5
20260901094346 50 97 4.0 0.0 0.00 0.00 0.00 80 1015.5
20260901093329 49 94 4.0 0.0 0.00 0.00 0.00 80 1015.6
20260901092333 49 107 2.0 0.0 0.00 0.00 0.00 79 1015.8
20260901091356 49 82 4.0 0.0 0.00 0.00 0.00 78 1015.7
20260901090406 50 75 3.0 0.0 0.00 0.00 0.00 76 1015.8
20260901085328 52 2 3.0 0.0 0.00 0.00 0.00 76 1016.0
20260901084332 51 171 3.0 0.0 0.00 0.00 0.00 76 1015.9
20260901083336 51 203 1.0 0.0 0.00 0.00 0.00 76 1015.8
20260901082344 51 111 4.0 0.0 0.00 0.00 0.00 76 1015.8
20260901081347 52 169 3.0 0.0 0.00 0.00 0.00 76 1015.8
20260901080329 52 138 4.0 0.0 0.00 0.00 0.00 77 1015.9
20260901075331 51 99 4.0 0.0 0.00 0.00 0.00 78 1015.5
20260901074335 50 87 3.0 0.0 0.00 0.00 0.00 77 1016.0
20260901073326 50 98 3.0 0.0 0.00 0.00 0.00 76 1016.1
20260901072349 52 67 0.0 0.0 0.00 0.00 0.00 75 1015.6
20260901071334 51 172 1.0 0.0 0.00 0.00 0.00 75 1015.8
20260901070340 52 172 2.0 0.0 0.00 0.00 0.00 75 1015.7
20260901065348 52 155 1.0 0.0 0.00 0.00 0.00 75 1015.9
20260901064332 52 155 1.0 0.0 0.00 0.00 0.00 75 1016.0
20260901063335 52 84 0.0 0.0 0.00 0.00 0.00 75 1016.0
20260901062339 52 84 1.0 0.0 0.00 0.00 0.00 74 1015.9
20260901061346 52 208 1.0 0.0 0.00 0.00 0.00 73 1016.1
20260901060328 53 156 0.0 0.0 0.00 0.00 0.00 72 1015.8
20260901055331 53 156 0.0 0.0 0.00 0.00 0.00 72 1015.2
20260901054337 54 155 1.0 0.0 0.00 0.00 0.00 71 1015.4
20260901053339 54 155 0.0 0.0 0.00 0.00 0.00 71 1015.4
20260901052327 54 155 1.0 0.0 0.00 0.00 0.00 69 1015.4
20260901051350 55 156 2.0 0.0 0.00 0.00 0.00 67 1016.0
20260901050353 56 204 3.0 0.0 0.00 0.00 0.00 65 1016.1
20260901045336 57 133 5.0 0.0 0.00 0.00 0.00 64 1015.3
20260901044340 58 125 4.0 0.0 0.00 0.00 0.00 64 1016.0
20260901043328 56 100 4.0 0.0 0.00 0.00 0.00 66 1015.5
20260901042330 55 90 3.0 0.0 0.00 0.00 0.00 66 1016.0
20260901041333 56 26 5.0 0.0 0.00 0.00 0.00 63 1015.8
20260901040339 59 28 3.0 0.0 0.00 0.00 0.00 56 1016.4
20260901035347 60 98 2.0 0.0 0.00 0.00 0.00 54 1016.2
20260901034329 59 100 3.0 0.0 0.00 0.00 0.00 54 1016.1
20260901033352 59 176 3.0 0.0 0.00 0.00 0.00 56 1015.9
20260901032337 60 195 4.0 0.0 0.00 0.00 0.00 53 1015.9
20260901031400 61 190 3.0 0.0 0.00 0.00 0.00 50 1015.6
20260901030326 65 113 0.0 0.0 0.00 0.00 0.00 45 1016.9
20260901025329 66 113 1.0 0.0 0.00 0.00 0.00 43 1015.8
20260901024332 66 63 0.0 0.0 0.00 0.00 0.00 42 1015.8
20260901023336 66 55 1.0 0.0 0.00 0.00 0.00 43 1015.8
20260901022329 67 171 5.0 0.0 0.00 0.00 0.00 39 1015.7
20260901021336 67 191 7.0 0.0 0.00 0.00 0.00 41 1015.6
20260901020339 69 190 8.0 0.0 0.00 0.00 0.00 40 1015.4
20260901015341 70 190 5.0 0.0 0.00 0.00 0.00 40 1015.3
20260901014327 73 191 5.0 0.0 0.00 0.00 0.00 36 1014.6
20260901013330 76 176 5.0 0.0 0.00 0.00 0.00 33 1015.4
20260901012333 78 166 1.0 0.0 0.00 0.00 0.00 27 1015.1
20260901011336 79 255 1.0 0.0 0.00 0.00 0.00 26 1015.2
20260901010359 79 255 2.0 0.0 0.00 0.00 0.00 23 1015.2